Location: Songkhla
(7.2000°N, 100.6000°E)
Time: 19:46:02
(UTC+07:00)

Cosmos 1844 Rocket - Pass Details

Date: 16 April 2026
Orbit: 825 x 842 km, 71.0° (Epoch: 20 May)

Event Time Altitude Azimuth Distance (km) Brightness Sun altitude
Rises 19:12:10 0° 345° (NNW) 3,347 6.2 -12.0°
Reaches altitude 10° 19:14:35 10° 345° (NNW) 2,415 5.4 -12.6°
Maximum altitude 19:20:08 88° 76° (ENE) 828 2.6 -14.0°
Drops below altitude 10° 19:25:41 10° 164° (SSE) 2,424 4.8 -15.3°
Sets 19:28:07 0° 164° (SSE) 3,359 5.5 -15.9°
